Theta_e
319 319 320 320 320 324 324 326 321 319 320 312 314 317 315 320 320 321 319 319 320 319 319 318 319 318 318 319 318 319 317 319 318 318 318 325 330 328 334 330 326 337 342 343 344 343 344 344 344 344 344 343 343 343 342 342 340 341 341 340 340 339 338 338 340 340 340 340 339 339 339 338 337 337 336 336 338 338 338 338 338 338 338 337 338 338 337 336 333 331 329 326 324 323 321 320 319
321 321 322 321 323 327 326 326 319 313 315 310 314 317 316 321 320 320 319 319 320 318 319 318 319 318 318 319 318 319 317 319 318 319 322 325 329 331 330 328 332 339 342 343 344 343 344 344 344 345 344 343 343 343 342 342 340 340 340 340 340 340 339 338 339 340 340 339 339 339 338 338 337 337 335 334 336 338 338 337 337 337 338 337 337 337 336 334 332 331 329 327 325 326 325 322 319
320 321 322 323 325 327 325 324 317 310 311 309 313 318 318 321 319 319 319 319 319 318 319 318 319 318 319 319 318 319 318 318 318 320 322 325 329 333 331 327 330 338 342 343 344 344 344 345 344 345 344 343 344 343 343 342 340 340 340 340 340 340 339 338 339 339 340 340 339 339 338 336 335 335 334 332 332 336 337 337 337 337 337 337 337 336 335 334 331 330 329 328 326 326 325 324 322
319 321 321 324 326 324 324 322 317 311 309 310 311 317 320 319 319 318 318 319 319 319 318 319 319 318 319 319 318 318 318 317 319 320 323 330 330 332 330 325 329 337 342 343 343 343 343 345 344 344 344 343 344 343 343 342 341 341 341 340 340 340 339 339 338 338 339 340 339 339 337 334 334 334 334 331 330 333 335 336 336 336 336 335 336 336 335 334 332 330 328 327 327 326 323 323 321
321 323 322 324 328 323 323 321 317 313 311 311 312 316 319 317 318 318 318 319 319 319 318 319 318 317 318 317 319 318 319 318 320 323 327 332 328 329 330 326 334 338 339 343 343 342 344 345 344 344 344 344 344 343 343 342 342 341 341 341 340 339 339 340 338 338 338 339 339 339 337 334 334 333 334 332 330 330 332 335 334 335 335 335 336 335 335 334 332 331 329 327 326 323 321 321 315
323 325 323 324 325 322 321 316 313 314 315 317 315 316 317 316 317 317 318 318 318 318 317 318 318 317 318 317 318 318 319 318 321 328 332 333 325 328 333 333 339 338 338 343 342 342 344 344 343 343 343 344 344 343 343 342 342 341 341 341 340 340 339 339 339 338 338 338 338 337 337 334 334 334 334 332 330 329 330 333 333 334 334 335 336 335 335 333 332 330 329 327 325 323 321 318 306
322 324 324 323 322 323 321 314 313 314 317 320 317 317 317 316 317 317 317 317 317 317 316 317 317 317 317 316 318 319 321 322 325 331 333 332 326 328 334 338 340 337 339 342 342 342 343 343 342 344 343 343 344 343 343 342 342 342 341 341 340 340 339 339 338 338 338 338 336 336 336 334 334 335 335 333 330 329 330 332 332 333 333 334 335 334 333 332 331 328 327 326 326 324 322 316 302
322 323 324 325 323 322 320 315 316 317 316 318 318 318 317 317 317 317 318 317 316 316 316 316 316 316 317 316 319 319 320 325 329 329 333 331 327 327 330 336 340 338 340 342 342 341 342 342 341 343 342 342 343 343 343 342 342 342 342 341 341 340 339 338 338 338 338 337 335 334 334 333 333 335 336 334 332 330 330 332 332 333 333 335 333 331 330 330 329 327 327 326 327 325 321 316 302
323 323 324 325 322 318 317 316 317 318 317 317 317 317 317 317 317 317 317 316 316 316 316 315 316 316 316 317 318 319 318 322 327 328 333 332 327 326 326 330 337 339 340 341 341 340 341 340 341 342 341 341 341 342 343 342 343 342 342 341 340 340 338 338 338 337 337 337 336 335 334 334 333 335 337 336 335 332 331 332 332 333 333 333 330 329 329 331 330 328 328 326 326 323 321 316 302
323 322 323 324 318 315 314 315 316 318 318 318 317 317 317 317 316 317 317 316 316 316 316 315 316 315 316 317 317 318 316 319 325 328 332 333 330 328 329 328 332 337 338 340 340 339 340 339 340 341 341 341 340 341 343 343 343 342 342 341 340 340 338 338 337 336 336 336 337 336 335 335 334 334 336 337 336 334 332 332 333 332 332 330 329 330 331 330 328 327 326 324 323 320 320 316 303
321 321 323 321 315 312 311 314 317 319 318 318 317 317 316 316 317 317 317 316 316 316 316 316 317 315 316 317 318 316 315 317 322 327 331 332 331 331 334 331 330 334 336 337 338 338 338 339 340 341 342 341 340 341 342 342 342 342 342 341 340 339 339 337 336 336 335 336 337 337 337 336 335 334 335 336 336 335 334 333 333 332 331 330 330 332 331 328 326 325 324 322 322 320 319 317 305
321 320 321 318 314 313 314 315 317 319 318 317 317 316 316 316 317 317 317 317 316 317 316 316 316 316 316 317 317 316 314 314 318 325 329 332 332 332 334 333 331 333 334 335 336 337 338 339 339 340 341 341 340 341 341 342 342 342 341 341 340 339 338 337 336 335 333 334 336 336 336 336 334 334 334 336 336 336 335 334 334 332 331 331 330 331 330 327 326 324 324 323 322 321 318 317 309
321 319 319 317 318 318 317 317 318 319 318 318 317 315 315 316 317 317 317 317 316 317 316 315 316 316 316 317 316 316 314 312 314 321 327 330 330 330 331 331 331 333 334 335 335 335 336 338 339 339 339 339 340 340 341 340 341 341 341 341 340 339 339 338 337 335 332 332 334 335 335 335 334 333 334 335 336 336 336 335 334 333 332 331 330 330 329 328 327 325 324 324 323 322 319 316 312
322 320 319 318 320 319 317 318 318 317 316 318 317 315 315 315 316 316 317 317 316 316 315 315 315 316 316 316 316 316 314 311 312 317 324 328 327 328 329 328 328 331 333 334 335 335 335 336 338 339 339 339 339 339 339 339 339 340 341 341 340 340 339 338 337 335 333 331 332 333 334 333 332 333 334 334 335 336 336 335 335 334 332 331 330 330 330 329 328 326 322 323 323 323 321 316 313
322 319 320 318 317 316 318 319 318 315 316 318 316 315 316 315 316 316 316 317 316 315 315 315 315 315 315 316 317 315 312 311 312 315 320 325 325 324 324 325 325 327 329 329 330 333 335 335 336 337 338 339 339 339 340 338 338 338 339 340 339 339 339 339 338 335 334 332 331 331 332 332 331 332 332 333 333 334 335 334 334 334 333 331 330 330 330 329 328 327 322 321 322 323 323 318 312
320 319 319 316 314 314 317 320 318 315 317 318 316 315 316 315 315 316 315 315 316 316 315 315 314 314 314 314 314 312 310 311 312 315 318 322 323 321 320 321 321 322 324 325 324 328 332 333 335 336 336 338 339 339 340 339 338 337 337 338 339 339 339 339 338 337 335 333 331 330 331 331 331 331 331 332 332 333 334 333 332 333 333 331 330 330 330 329 328 327 322 319 321 322 323 321 315
318 320 318 314 313 314 316 319 318 316 318 318 316 316 316 316 315 316 315 314 315 316 314 313 313 313 312 312 311 310 311 311 312 315 317 318 320 319 318 318 318 319 319 320 321 323 326 330 333 335 335 336 337 338 339 340 340 338 337 337 337 337 338 339 338 337 336 334 332 330 330 331 332 333 333 333 333 333 333 332 331 332 333 332 331 330 330 329 328 327 323 320 320 321 321 321 320
320 320 316 313 314 315 317 318 318 318 319 318 317 317 317 317 316 316 315 315 316 316 314 313 313 312 312 311 310 310 311 312 313 315 316 317 317 317 317 317 317 318 318 318 318 319 321 325 329 332 334 335 336 337 338 339 339 338 337 337 337 337 337 338 338 337 336 335 334 332 330 332 335 335 336 335 334 334 333 332 332 331 331 332 331 330 330 329 328 327 324 322 321 321 320 320 321
320 320 315 315 317 317 319 319 318 319 318 317 317 316 316 317 317 316 316 316 316 316 314 313 314 313 312 311 310 311 311 312 313 314 315 316 316 316 316 316 317 317 317 318 317 317 316 319 323 327 331 334 334 336 337 337 338 338 338 338 339 338 337 337 337 337 337 337 336 334 334 335 336 335 335 335 334 334 333 332 332 330 330 330 331 330 330 329 328 327 324 323 323 322 322 320 320
320 319 318 317 318 317 317 318 317 317 317 317 317 316 316 316 316 316 316 316 316 316 315 314 315 314 312 311 311 311 311 312 313 314 315 315 315 315 315 315 316 316 316 316 317 317 315 316 317 321 327 332 333 335 336 336 336 337 338 338 339 339 337 337 338 338 338 338 337 336 336 337 336 336 335 334 332 332 332 332 331 330 329 330 330 330 330 329 328 328 325 325 325 324 323 321 320
320 319 319 316 316 317 316 316 316 316 316 316 316 316 316 316 316 315 316 316 316 316 314 314 314 312 311 310 311 311 311 312 312 313 314 314 315 314 314 314 314 315 316 316 316 317 317 316 315 317 321 328 332 333 334 336 336 337 337 338 338 338 337 337 338 338 337 337 337 336 337 337 336 336 335 334 333 333 333 333 332 331 331 331 330 330 331 330 329 329 327 326 326 324 323 322 322
319 318 318 316 316 318 316 316 316 315 315 316 316 315 316 316 315 315 315 316 317 314 312 311 311 310 309 309 310 311 311 311 311 312 313 313 314 313 313 313 313 314 315 316 316 317 318 316 317 317 316 323 331 332 333 335 336 336 337 337 337 337 335 336 337 336 336 337 337 336 337 337 336 336 335 335 334 334 333 333 333 332 332 331 330 330 331 331 330 329 328 327 326 324 324 324 323
319 318 317 317 316 317 317 316 315 315 315 315 316 315 315 315 315 315 315 315 313 310 309 309 308 309 308 309 310 310 310 311 311 311 312 312 312 312 313 312 312 313 314 315 315 317 317 316 318 318 316 322 330 331 333 334 335 336 336 336 335 336 335 335 336 335 335 336 336 335 335 335 335 335 335 334 334 334 333 332 332 332 331 331 330 331 331 331 330 329 328 327 326 324 324 324 324
318 318 317 317 316 316 316 316 314 314 314 315 315 314 314 314 315 314 314 313 309 308 308 308 308 308 309 309 309 309 310 310 310 310 311 311 311 312 312 312 312 313 314 315 315 316 317 317 320 319 317 323 329 330 333 333 334 336 335 335 334 335 334 334 335 334 334 334 334 334 334 334 334 335 334 334 334 334 334 333 331 330 330 330 330 330 330 330 329 329 328 327 326 324 324 323 322
318 318 317 316 315 315 315 315 314 314 314 314 313 313 314 315 314 313 313 311 308 307 308 308 308 308 308 308 308 309 309 309 309 310 311 311 310 311 311 311 311 312 313 314 315 316 318 318 321 320 320 325 329 330 331 332 333 334 334 333 333 333 332 332 333 332 332 332 332 332 332 332 333 333 334 334 334 334 333 331 329 329 330 330 330 329 329 328 328 329 328 327 326 325 324 323 322
317 317 316 316 316 316 315 315 315 314 314 314 313 314 315 313 312 313 312 309 308 307 307 307 308 308 308 307 308 309 309 309 309 309 310 310 310 310 310 310 310 311 312 314 316 317 318 319 321 323 325 327 329 330 332 332 333 332 332 332 331 331 331 330 330 330 330 330 330 330 331 331 331 332 333 333 333 332 330 329 328 329 329 328 328 327 327 328 328 328 327 326 325 324 324 323 322
315 315 315 316 316 316 315 315 315 314 314 313 313 316 315 311 312 313 311 308 308 307 307 307 308 308 307 307 307 308 308 308 308 308 309 310 309 309 309 309 309 310 313 315 317 318 317 319 323 324 327 328 329 331 331 331 331 329 329 330 329 328 328 328 328 328 328 329 329 329 331 331 331 331 332 331 331 330 328 328 328 329 328 327 327 327 327 327 327 327 327 326 325 324 323 321 321
314 315 316 317 316 316 315 315 315 314 314 313 313 315 314 311 312 313 310 308 308 308 308 307 308 308 307 306 307 308 308 307 307 308 308 308 307 307 308 307 307 310 313 314 316 317 317 319 323 325 327 328 329 329 329 329 328 327 327 327 327 326 326 326 326 326 327 327 328 328 328 330 329 329 329 328 329 328 328 328 327 328 327 327 327 327 326 326 326 326 326 325 324 324 322 320 320
314 315 317 318 318 318 317 315 314 314 314 312 313 314 314 313 312 311 309 308 308 308 308 308 307 307 307 306 306 307 307 307 307 307 306 306 306 306 306 305 306 309 311 312 314 317 317 319 322 324 326 327 327 326 326 326 325 325 325 325 325 325 325 325 324 324 325 326 327 327 327 327 327 327 327 327 326 326 326 326 326 326 325 325 326 326 326 325 325 325 324 324 323 323 322 321 320
315 316 316 318 319 319 317 315 313 313 313 311 313 314 316 315 312 309 308 308 308 309 309 308 308 307 306 306 306 307 307 306 306 305 305 305 305 304 304 305 308 310 310 312 314 315 317 319 321 323 324 325 325 324 324 325 325 324 324 324 324 324 323 323 323 323 323 323 324 325 326 326 326 324 325 325 324 324 324 324 324 323 323 323 323 323 324 323 323 323 323 323 323 323 323 322 322
317 317 317 318 318 317 316 315 314 315 311 311 313 314 316 315 311 309 309 308 309 310 310 309 308 307 306 306 306 306 306 306 305 304 304 304 303 303 303 305 309 310 309 311 313 313 314 318 321 322 323 323 324 324 324 324 324 324 323 323 323 323 322 322 322 322 322 322 322 323 324 324 324 323 323 323 322 322 323 322 321 320 321 321 320 320 320 320 320 321 320 321 320 320 320 320 320
318 317 316 319 317 316 317 315 315 316 312 311 314 315 317 315 311 310 308 308 309 310 311 309 308 307 306 306 306 306 306 305 305 304 303 303 303 302 302 306 309 310 309 310 311 311 312 315 319 321 322 323 323 323 323 323 323 323 322 322 321 321 321 320 320 320 319 319 319 320 321 321 321 321 321 320 319 320 320 320 318 318 318 318 318 318 317 316 316 317 318 318 317 316 316 316 316
319 317 316 318 318 318 318 315 314 315 314 313 314 315 318 315 312 310 308 309 309 310 311 310 308 307 306 306 306 306 306 306 305 304 303 303 303 301 302 306 309 308 308 309 310 310 312 313 315 318 319 321 322 321 321 321 320 320 320 319 319 318 317 316 316 316 316 316 316 316 316 317 316 317 317 317 316 316 316 315 315 315 315 315 316 316 315 313 313 314 314 314 314 312 312 312 312
318 319 318 317 318 318 316 315 315 314 314 315 315 315 317 315 312 310 309 309 309 310 311 310 309 307 307 306 306 306 306 306 305 304 302 302 302 301 302 306 307 307 306 308 309 310 311 311 313 316 317 318 319 319 319 318 317 318 317 316 315 315 313 312 312 312 312 313 313 313 313 314 313 313 313 313 312 312 312 312 311 311 311 311 312 312 311 311 311 310 311 311 310 309 308 308 308
317 318 318 318 318 317 317 317 315 314 315 316 317 316 317 316 313 311 310 309 310 311 311 310 309 308 307 306 306 306 306 305 304 303 301 301 302 301 301 303 304 305 304 306 307 308 309 310 311 312 312 313 313 315 316 314 314 313 312 311 311 311 309 308 308 308 308 309 309 309 310 310 310 309 309 309 308 307 307 307 307 307 307 307 307 307 307 307 308 308 308 308 308 306 305 305 305
319 318 318 317 317 317 318 318 315 315 316 317 318 317 318 318 315 312 310 309 310 311 310 309 308 307 307 306 306 306 305 304 303 302 301 301 301 301 301 301 301 303 303 305 307 307 308 310 309 308 308 308 308 310 311 310 310 308 306 307 306 306 306 305 305 305 305 305 305 305 306 306 306 306 305 304 304 304 304 303 303 303 303 303 303 303 303 303 305 306 307 306 306 305 303 303 303
319 319 318 318 317 317 319 318 314 314 316 318 319 319 319 319 318 314 310 309 310 311 310 309 308 307 307 306 306 306 305 304 302 301 301 301 301 301 301 300 301 302 302 304 306 306 307 307 307 307 306 305 305 306 305 306 305 304 303 302 301 301 302 302 302 302 302 302 302 302 302 302 302 303 302 301 301 301 301 301 300 300 299 299 299 299 299 300 302 304 305 305 304 303 301 301 301
318 318 318 318 318 318 319 318 314 313 315 318 319 319 318 318 319 315 310 310 311 311 310 309 309 308 307 306 306 305 304 303 302 302 301 301 301 301 301 300 301 302 302 303 305 305 305 305 305 305 304 304 304 303 303 303 301 301 301 299 298 298 297 298 298 299 299 299 299 299 299 299 299 300 300 299 298 297 297 296 296 295 295 294 293 294 295 296 298 301 303 303 303 301 300 299 299
318 318 318 318 319 320 319 316 314 313 315 318 318 318 318 318 318 316 311 312 312 311 311 310 309 308 307 306 306 305 304 303 303 302 301 301 301 301 301 300 300 301 301 302 303 303 303 304 304 303 303 303 302 302 303 303 300 300 301 299 298 297 295 295 296 296 297 297 297 297 296 296 296 296 295 295 294 293 292 291 291 291 291 291 290 290 290 291 292 295 298 300 300 299 298 298 296
318 319 318 318 320 321 319 316 315 314 314 316 317 317 318 318 318 316 313 312 312 310 309 308 308 307 307 306 305 305 304 303 302 301 302 302 301 301 301 300 300 300 300 301 301 301 301 302 302 302 303 303 304 304 304 303 301 299 298 296 295 294 292 292 292 292 292 292 292 292 291 291 291 291 290 290 290 289 289 289 289 289 290 290 290 289 289 289 289 290 292 295 296 295 295 296 295
318 319 319 319 320 320 319 318 316 315 315 315 315 318 319 319 321 317 312 310 309 307 306 306 306 306 306 305 304 304 304 304 302 301 301 302 302 301 300 300 300 300 299 299 300 300 300 301 301 302 302 303 303 303 302 301 299 296 295 293 293 293 292 291 290 290 289 288 288 288 288 288 288 288 288 288 288 289 289 288 288 289 289 289 289 289 288 288 288 289 289 291 293 293 293 294 294
318 320 319 319 319 319 320 320 318 318 320 317 316 322 323 320 322 320 311 308 308 306 306 306 305 305 305 304 303 303 303 303 302 302 301 302 301 300 300 300 299 299 298 299 299 299 299 300 300 300 300 299 299 298 298 297 296 295 294 294 294 293 292 291 291 290 289 288 288 288 288 288 288 288 288 288 288 288 288 288 288 288 288 287 288 288 287 287 287 287 288 288 289 291 292 292 292
319 321 320 318 319 320 320 320 319 321 323 318 316 322 324 320 321 319 312 310 310 307 306 307 306 305 304 304 303 303 302 302 301 301 301 301 301 300 300 299 299 298 297 298 298 298 299 299 299 298 297 296 296 295 296 295 296 295 295 294 293 292 292 291 290 290 289 288 287 287 287 288 288 287 288 287 287 287 287 287 287 287 286 286 286 286 286 286 286 286 286 286 287 288 290 291 291
321 321 320 319 319 320 321 320 320 321 322 318 315 319 323 321 321 319 314 312 312 308 307 307 306 305 304 304 304 303 302 301 300 300 301 301 300 300 299 298 297 297 296 297 297 297 297 297 297 297 296 295 295 295 295 295 295 294 293 292 292 292 291 290 290 289 288 288 287 287 286 287 287 287 287 287 287 287 286 286 286 286 286 285 285 285 285 285 285 285 285 285 286 285 287 289 290
321 318 318 319 319 320 320 320 321 320 321 321 319 319 321 322 321 318 315 315 316 313 310 308 307 306 304 304 304 303 302 301 301 300 300 300 299 299 298 296 295 295 295 296 296 296 296 296 296 295 295 294 294 294 294 294 293 292 292 291 290 290 290 290 289 289 288 288 287 287 286 286 286 286 286 286 286 286 286 286 286 285 285 285 285 285 285 285 285 285 285 285 285 285 285 286 287
318 316 317 317 318 319 319 320 320 320 321 322 322 320 322 323 320 318 317 316 318 317 314 310 308 306 305 304 304 302 301 301 301 300 300 299 298 297 296 295 294 294 294 294 295 295 295 295 295 294 294 293 293 293 293 292 292 291 291 290 290 290 290 290 290 289 289 288 288 287 286 286 285 285 285 285 285 285 285 285 285 285 285 285 285 285 285 285 285 285 285 285 285 285 285 285 285
316 317 318 318 317 317 318 318 318 321 323 322 321 320 321 323 321 319 320 319 318 319 316 311 308 307 305 304 303 302 301 300 300 300 299 298 296 295 294 294 293 293 293 293 294 294 294 294 294 293 293 292 292 292 292 292 291 291 290 290 290 290 290 291 290 290 289 289 288 288 287 286 285 285 285 285 285 285 285 285 285 285 285 285 285 285 285 285 285 284 285 285 285 285 285 285 285
317 318 319 320 319 317 318 318 318 322 326 322 319 319 321 324 322 319 320 318 317 318 315 310 308 307 305 304 303 302 301 300 299 298 298 297 295 294 294 294 293 292 292 293 293 293 293 293 292 292 292 291 291 291 292 291 291 290 290 289 290 290 290 291 290 290 289 289 289 288 287 287 285 285 285 285 285 285 285 285 285 285 284 285 284 284 284 284 284 284 284 284 284 284 284 284 284
317 318 319 322 324 321 322 323 320 323 324 316 315 319 322 323 320 319 320 317 314 315 314 311 309 307 306 304 303 302 301 300 299 298 297 296 295 295 294 294 293 292 292 292 293 293 292 292 292 291 291 291 291 291 291 290 290 290 290 289 289 289 289 289 289 289 289 289 289 288 287 286 285 284 284 284 284 284 284 284 284 284 284 284 284 284 284 284 284 284 284 284 284 284 284 284 284
316 319 320 323 327 328 329 326 324 325 320 312 312 317 320 320 318 318 318 313 310 310 311 311 310 307 306 304 303 302 301 300 299 298 297 296 296 295 294 293 293 292 292 292 292 292 292 292 292 291 291 290 290 290 290 289 289 289 289 289 289 288 288 288 288 288 288 288 287 287 286 285 285 284 284 284 284 284 284 284 284 284 284 284 284 284 284 284 284 284 283 284 283 283 284 283 283
316 319 320 323 326 328 329 327 325 325 318 312 313 317 319 319 316 313 311 308 307 306 307 309 309 306 305 304 302 301 300 299 299 298 297 297 296 295 294 293 293 292 292 292 292 292 292 292 291 291 290 290 289 289 289 289 289 289 288 288 288 288 288 287 287 287 286 286 286 286 285 285 284 284 284 284 284 284 283 283 283 283 283 283 283 283 283 283 284 283 283 283 283 283 283 283 282
317 317 320 322 323 324 324 321 318 318 317 315 314 316 318 316 314 309 306 306 305 305 305 307 308 306 305 303 302 301 300 299 299 298 297 297 296 295 294 293 293 292 292 291 292 292 292 291 291 290 290 289 289 289 289 288 288 288 288 288 288 287 287 287 286 286 286 286 286 286 285 285 284 284 284 284 284 284 284 283 283 283 283 283 283 283 283 283 284 283 283 283 283 283 283 283 282
318 318 320 320 318 320 322 320 315 314 320 321 316 316 316 316 315 309 306 307 306 305 305 306 307 306 304 303 302 301 300 299 299 298 297 296 296 295 294 293 293 292 291 291 291 292 292 291 290 290 289 289 289 289 288 288 288 288 288 288 287 287 287 287 286 286 286 286 286 286 286 285 285 284 285 284 284 284 284 284 283 283 283 283 283 283 283 283 283 283 283 283 283 283 283 282 282
317 318 319 317 316 317 319 322 321 320 324 323 319 319 318 318 318 312 308 309 307 306 306 306 306 305 304 304 303 302 301 300 299 298 297 297 295 294 294 293 293 292 291 291 291 291 291 290 290 289 289 289 288 288 288 288 288 288 287 287 287 287 287 287 287 287 287 287 287 286 286 286 286 286 285 285 285 284 284 284 283 283 283 283 283 283 283 283 283 283 283 282 282 282 282 281 281
314 316 317 317 320 320 319 321 323 324 326 324 321 320 319 318 318 314 312 312 310 307 306 305 305 305 305 304 303 302 301 300 299 298 297 297 296 294 294 293 292 292 291 291 290 290 290 290 290 289 289 289 288 288 288 287 287 287 287 287 287 287 287 287 287 287 287 287 287 287 286 286 286 286 286 285 285 284 284 284 283 283 283 282 282 283 283 283 283 282 282 281 281 282 281 281 280
311 313 315 317 318 320 320 321 322 323 325 325 324 321 319 319 318 316 315 314 312 309 307 306 305 304 305 305 304 303 301 300 299 298 298 297 296 294 293 293 292 291 291 290 290 290 290 290 289 289 289 288 288 288 287 287 287 287 287 287 287 287 287 287 287 287 287 287 287 287 287 287 287 286 286 285 285 284 283 283 283 282 282 282 282 282 282 282 282 281 281 281 281 281 281 280 280
313 313 316 317 316 316 317 319 319 320 323 324 325 324 320 317 317 318 317 316 314 311 308 307 306 304 305 305 304 303 302 301 300 299 298 297 296 294 293 292 292 291 290 290 289 289 290 289 289 289 289 288 288 287 287 287 287 287 287 287 287 287 287 287 287 287 287 287 287 287 287 287 286 286 285 285 284 283 283 282 282 282 282 281 282 282 282 282 281 281 281 281 281 281 280 280 280
315 315 316 317 317 317 319 321 320 318 319 321 323 324 321 317 316 317 316 316 315 312 309 308 306 305 305 305 305 304 302 301 300 299 298 297 296 294 293 292 291 291 290 290 289 289 289 289 289 289 288 288 287 287 287 287 287 287 287 287 287 287 287 287 287 287 287 287 287 287 287 286 286 285 284 284 283 282 282 282 281 281 281 281 281 281 281 281 281 281 280 280 280 280 280 279 279
Wind_Speed
8 7 7 7 5 7 5 3 2 2 2 4 3 2 5 4 1 1 4 3 3 6 6 4 4 4 5 4 6 7 8 9 8 5 5 4 4 7 4 3 6 10 13 16 15 20 20 18 18 16 16 14 14 13 12 11 10 10 9 10 9 9 9 8 8 8 8 8 8 8 8 8 7 6 6 6 7 7 8 8 7 7 7 7 8 9 10 11 11 11 11 12 13 13 13 11 9
8 7 7 6 5 6 1 1 2 3 2 4 3 3 5 2 1 3 7 6 6 6 3 3 3 3 4 3 3 1 8 10 9 7 7 6 8 12 5 3 7 8 11 14 14 17 17 17 18 16 16 15 14 14 13 11 10 10 9 9 8 8 8 8 9 8 8 7 7 7 7 7 7 6 5 5 6 7 7 7 6 6 6 7 8 9 10 10 11 11 11 11 13 14 14 13 12
7 7 6 6 5 4 1 2 2 2 2 4 4 4 3 2 4 6 7 7 7 5 2 1 0 2 5 4 1 1 7 8 9 5 6 8 5 11 9 0 5 6 8 11 13 15 15 15 18 16 15 15 14 14 13 12 11 10 9 8 7 7 7 8 9 8 7 7 7 7 7 6 5 5 4 4 4 5 6 7 6 6 6 7 8 8 8 10 12 11 10 12 15 16 16 15 13
6 6 5 5 3 3 3 3 2 1 1 3 4 4 2 3 6 6 7 6 5 3 2 1 1 2 5 2 3 2 6 7 11 9 5 10 7 11 7 0 5 4 7 10 11 12 12 13 16 15 14 14 14 13 13 12 12 11 10 9 8 6 6 6 8 8 7 6 7 7 6 5 4 4 4 3 3 4 5 6 5 5 7 9 9 8 8 9 12 11 11 15 18 18 18 15 13
6 5 5 5 3 1 2 1 1 1 2 3 4 5 3 5 6 5 6 5 3 3 4 3 2 3 2 6 5 3 6 3 9 13 7 7 9 8 5 3 5 3 7 9 10 10 10 11 13 14 13 13 13 12 12 12 12 11 10 9 8 7 5 5 6 7 7 6 6 6 6 4 4 4 4 3 3 3 4 5 5 6 7 9 9 8 7 9 12 11 13 17 18 19 18 16 13
6 5 3 4 2 1 2 2 1 2 5 4 4 6 4 5 5 4 5 5 4 3 3 4 3 2 2 6 7 6 8 5 4 11 9 9 9 5 6 6 5 4 8 9 9 8 9 10 12 14 12 12 12 11 10 10 11 11 10 8 8 8 6 5 5 7 7 7 5 5 5 4 3 4 4 4 3 2 3 4 5 6 7 8 8 8 7 8 11 11 13 16 18 18 19 16 13
5 3 2 3 1 1 4 2 2 4 4 5 5 6 6 6 4 2 5 5 3 3 1 3 3 1 3 5 6 9 11 8 5 8 8 10 6 5 6 7 5 6 7 8 8 7 8 8 12 14 11 12 11 10 10 9 10 10 9 7 6 6 6 5 4 6 7 7 5 4 4 3 3 3 4 4 4 3 4 4 4 5 5 6 7 7 7 8 9 12 13 16 17 18 19 17 13
4 2 1 2 2 2 3 3 3 3 4 4 5 5 6 5 2 1 3 3 3 3 2 3 2 3 4 3 3 9 13 12 7 9 9 9 5 5 6 7 6 6 6 6 7 7 7 7 13 15 12 12 10 9 9 9 9 9 9 7 6 5 5 5 4 5 6 7 6 5 4 3 2 2 3 4 4 4 4 4 4 4 5 5 5 7 8 8 10 13 14 16 17 18 19 16 13
4 2 1 2 2 2 1 3 3 4 5 4 5 5 5 4 1 0 3 4 4 3 4 4 4 3 5 5 6 8 10 10 7 11 12 11 7 5 6 7 7 6 5 5 6 5 5 8 14 15 12 12 11 10 9 9 9 9 8 7 6 5 5 5 4 3 4 7 6 5 5 4 2 1 2 3 3 4 4 4 4 4 4 5 6 8 10 10 11 13 14 16 17 18 18 16 13
3 2 2 2 1 3 3 3 3 4 5 4 4 5 4 2 1 1 1 5 3 2 5 3 4 3 3 5 7 6 9 10 9 13 13 11 9 7 6 5 7 6 4 4 5 4 4 7 15 15 12 12 12 11 8 8 9 9 8 7 6 5 5 5 5 3 3 6 6 6 5 4 2 1 1 1 2 3 4 4 4 4 5 5 7 8 10 11 12 13 15 17 18 19 18 15 13
2 1 2 3 3 3 3 3 4 4 5 4 4 4 3 1 1 1 1 4 3 1 5 1 1 3 2 4 5 6 11 15 14 13 11 10 9 8 7 4 4 5 4 4 4 3 2 5 13 15 13 12 12 11 9 9 9 9 8 7 6 6 5 5 4 3 2 4 5 5 5 4 2 1 1 1 2 3 4 5 4 4 5 5 8 9 10 12 14 15 17 18 19 20 18 16 13
2 2 2 4 3 2 1 4 5 5 6 5 6 5 2 1 3 1 1 3 2 2 5 3 2 3 4 4 5 8 14 18 15 12 10 8 7 7 6 4 4 5 4 3 3 3 3 3 8 13 14 13 12 12 10 9 8 9 8 8 7 7 6 5 4 3 2 4 5 5 5 4 3 2 2 1 1 2 3 4 4 4 4 5 8 9 10 13 15 16 18 19 20 20 19 16 13
2 0 3 3 1 1 2 3 5 5 5 5 6 6 1 2 2 2 2 1 1 1 5 5 3 3 4 3 6 8 13 17 13 11 8 7 6 6 5 4 3 5 5 3 3 2 4 4 4 8 12 13 13 12 12 11 9 9 9 8 8 7 6 5 4 3 2 4 7 6 5 4 4 3 3 2 1 2 3 4 4 4 4 5 7 8 10 12 14 15 16 18 20 21 21 17 13
3 1 3 2 1 1 2 2 5 5 5 6 6 5 3 1 2 3 3 1 3 4 5 4 4 4 3 2 5 5 9 15 13 10 6 5 6 6 5 5 4 4 5 4 3 3 3 3 4 6 8 10 12 12 12 12 11 10 10 9 8 7 7 6 5 4 2 3 6 8 6 6 5 5 5 3 2 2 3 4 4 3 4 4 5 6 8 10 12 14 14 15 18 20 21 19 14
3 1 3 1 2 3 2 1 5 5 4 8 5 4 4 1 2 1 3 4 4 5 2 1 3 4 2 2 1 4 11 14 13 8 4 2 4 5 6 6 6 5 4 4 2 3 4 4 3 5 6 6 9 10 10 11 12 12 11 9 8 8 8 8 6 4 3 3 4 7 8 7 7 7 7 5 3 2 3 3 3 2 3 3 3 5 7 8 10 13 13 14 16 18 20 19 16
3 1 3 2 3 4 4 3 4 5 4 8 5 4 5 4 1 2 4 4 1 3 0 3 4 4 5 6 4 7 11 12 12 7 3 1 2 3 5 5 5 5 5 4 4 1 2 3 4 4 4 5 7 9 9 10 11 12 13 11 10 8 8 9 8 6 4 4 4 5 8 7 7 7 7 6 5 3 4 4 3 3 3 1 1 3 6 8 9 12 13 14 15 17 18 18 17
2 2 3 3 4 4 5 6 4 2 6 7 6 4 4 5 3 1 2 3 3 3 4 5 6 6 6 5 5 7 9 10 9 5 3 2 1 2 4 4 4 5 6 4 4 3 2 3 5 6 4 4 6 7 8 9 10 11 12 12 11 9 9 10 8 7 6 5 5 5 7 7 6 6 6 6 6 5 4 5 4 3 3 2 1 3 5 7 9 11 12 14 15 15 17 19 18
2 3 3 2 3 2 3 5 2 2 5 6 5 1 2 2 5 2 2 4 4 2 7 7 8 9 7 6 5 6 7 8 8 7 6 5 3 2 3 5 5 5 6 5 5 3 2 3 5 6 5 5 6 6 5 7 9 10 10 10 11 10 10 10 9 8 7 7 6 6 6 7 6 6 6 5 4 5 5 5 4 3 4 4 3 3 5 6 8 9 10 12 13 15 17 17 18
2 2 3 0 2 3 2 3 4 1 3 5 3 2 2 1 3 1 4 4 3 3 8 8 7 8 7 7 7 7 8 9 9 9 9 8 6 6 5 5 6 6 6 6 6 6 3 3 5 6 7 7 7 6 4 5 7 8 8 9 9 9 9 10 9 8 7 7 7 6 6 7 7 6 7 6 5 5 4 5 6 4 4 5 4 4 4 4 6 7 8 10 12 15 14 12 15
1 2 3 2 4 4 4 4 5 3 3 2 2 2 2 2 2 1 3 3 5 2 5 5 6 6 5 6 7 7 8 8 10 9 10 10 8 7 7 7 6 7 7 7 6 7 6 3 4 5 8 9 8 6 5 4 5 6 7 8 8 8 9 9 8 8 8 8 8 6 6 7 7 6 8 7 6 5 4 5 5 4 3 4 4 4 4 3 4 5 7 10 11 11 9 9 12
1 2 2 5 3 3 4 3 4 4 2 1 1 0 4 1 0 3 4 6 5 3 6 4 4 6 4 5 6 7 7 8 9 9 10 10 9 8 8 7 7 7 7 7 7 8 8 6 3 5 8 10 7 8 9 6 5 5 5 7 7 6 8 8 6 7 7 8 8 7 7 7 7 6 7 7 5 5 5 5 5 4 4 4 4 4 4 2 2 3 6 8 7 7 7 9 10
1 1 4 5 1 1 4 3 4 3 1 1 2 3 2 1 3 5 5 7 1 4 6 5 6 5 4 4 5 5 6 8 9 9 10 10 10 10 9 8 7 8 8 8 9 9 9 9 6 4 7 8 6 7 9 6 5 5 4 5 4 4 5 6 5 6 7 6 6 5 6 6 5 5 6 6 5 6 6 5 4 5 4 5 5 5 5 2 1 2 3 3 3 6 7 9 10
2 2 3 2 2 1 3 3 3 1 2 3 3 2 1 3 6 4 4 3 4 5 4 5 5 4 3 3 4 5 6 7 9 9 9 9 10 10 10 9 9 9 9 10 10 9 9 9 9 7 4 6 4 6 6 5 4 4 4 5 4 3 3 2 2 4 4 4 4 4 5 5 5 5 5 6 5 6 6 5 3 3 4 6 5 5 6 4 1 2 2 2 2 5 8 9 10
4 0 3 2 1 1 1 3 3 2 5 4 2 2 5 8 5 2 2 3 6 5 4 5 4 4 3 3 4 5 6 6 7 8 8 8 9 10 9 9 9 9 10 11 10 9 10 10 10 7 3 6 5 5 6 5 4 3 2 4 3 2 3 2 1 1 2 2 2 2 4 5 5 5 5 6 6 7 6 4 2 0 3 5 3 3 5 4 3 3 2 3 3 4 7 8 8
3 1 3 1 1 2 1 2 4 5 6 4 3 6 8 7 2 3 4 6 6 5 5 4 4 3 3 4 5 5 5 5 5 6 6 6 7 9 10 10 9 10 11 11 10 9 11 11 9 5 4 5 5 6 6 6 5 5 5 5 5 4 5 4 2 3 3 3 2 1 2 3 4 4 4 5 6 6 5 5 4 1 1 1 1 2 4 5 4 4 2 2 4 4 5 5 5
1 2 1 2 3 4 3 5 7 6 5 4 5 9 8 2 0 3 4 7 6 5 5 4 3 3 4 4 4 5 5 6 6 6 6 5 6 9 10 11 10 11 10 9 10 10 11 11 7 5 5 5 6 7 8 8 8 8 7 7 7 6 7 6 5 5 5 5 4 2 2 1 2 3 4 4 2 3 5 5 5 4 4 4 3 4 6 8 9 8 6 1 2 3 4 4 4
2 2 3 6 6 5 5 6 6 5 5 7 8 9 4 4 3 4 5 7 6 6 5 4 3 3 4 3 4 5 5 6 6 6 6 6 7 9 9 10 11 11 10 10 12 11 10 10 7 6 6 8 8 10 10 10 12 12 10 9 10 10 10 9 9 9 9 9 8 7 6 4 3 2 2 1 2 5 5 4 5 4 4 3 3 3 4 7 9 9 7 3 2 0 2 4 4
1 3 6 7 7 7 7 7 5 4 4 6 8 7 2 5 4 3 7 8 7 6 5 4 3 3 3 3 4 3 4 5 5 5 7 7 7 8 9 10 10 10 10 11 13 11 10 9 9 8 9 10 11 13 13 13 15 15 13 13 14 14 12 12 12 11 10 10 10 10 10 9 8 7 6 5 6 6 5 5 4 3 2 1 1 2 2 4 5 6 6 4 5 3 0 3 3
3 4 7 6 8 9 8 5 3 5 3 4 6 6 6 9 6 6 9 8 7 6 5 4 3 2 3 2 2 2 3 3 4 4 5 6 6 7 8 9 9 8 10 11 12 11 10 12 14 14 13 13 15 18 18 18 18 17 16 16 15 14 13 13 12 9 9 8 7 9 10 10 11 11 10 8 8 8 8 7 6 6 5 5 4 2 1 1 2 3 3 3 2 2 1 1 1
4 4 5 6 8 7 7 5 4 5 2 4 5 5 6 9 8 8 9 8 8 7 5 5 4 3 3 2 2 2 3 2 4 4 5 5 5 7 7 8 8 8 10 11 12 12 11 15 18 19 17 16 18 19 21 21 19 19 18 17 15 13 14 16 14 12 12 11 8 7 7 9 11 13 12 10 10 10 10 9 8 7 6 5 5 4 3 3 3 2 2 1 1 1 2 3 3
4 4 3 5 6 3 8 6 6 5 2 4 6 6 3 7 8 7 8 9 9 7 6 6 5 4 4 3 3 3 3 3 4 5 5 6 5 6 6 6 8 9 10 11 14 14 14 15 16 19 18 18 20 20 21 22 21 21 20 18 17 16 17 18 17 15 15 15 13 11 9 9 10 11 11 10 9 10 10 10 10 9 7 5 5 5 5 6 6 5 4 4 3 3 3 3 4
4 4 4 5 4 3 7 6 4 3 3 6 7 5 2 7 8 7 7 8 8 7 6 6 5 5 4 3 3 3 4 4 4 5 6 6 5 5 5 5 8 10 10 12 14 15 16 17 18 21 21 20 21 21 22 22 22 23 22 21 20 20 21 21 20 19 19 19 18 18 17 16 14 13 13 12 12 12 12 12 11 10 9 9 8 7 7 7 8 8 7 5 4 5 5 5 5
5 5 6 5 5 4 4 5 3 1 4 8 9 6 4 5 9 7 7 8 9 7 7 6 5 5 4 3 3 3 4 4 4 5 6 5 5 5 5 5 8 9 10 12 13 15 17 19 21 24 24 24 24 24 24 24 23 23 24 24 24 25 25 25 25 24 24 24 23 23 22 22 21 19 18 18 18 18 17 17 16 14 13 13 12 11 11 11 11 11 11 10 9 9 10 9 9
5 5 5 6 7 6 3 3 4 4 4 6 9 9 8 4 10 8 7 8 10 9 8 7 6 5 4 3 3 3 4 3 3 4 5 5 5 5 4 5 7 9 9 11 13 16 19 19 21 24 25 26 25 25 25 25 26 26 26 27 27 28 27 27 26 25 25 24 23 23 22 22 21 21 20 20 21 20 20 20 19 18 17 17 17 16 16 15 14 14 14 13 13 13 12 12 12
5 4 4 6 6 7 7 3 4 5 6 6 8 10 11 6 11 10 8 9 10 9 7 6 6 5 5 4 4 3 3 3 3 3 4 4 4 4 4 4 5 7 8 9 12 16 19 20 21 23 25 26 27 26 26 27 28 28 28 28 27 27 26 26 25 25 24 23 22 21 20 20 20 20 20 20 20 19 19 19 18 18 17 17 17 16 15 15 14 14 15 13 13 14 13 13 13
7 6 6 7 6 6 6 1 4 2 4 8 10 11 13 10 9 11 10 9 9 8 7 6 5 5 5 4 4 4 4 4 4 3 3 3 3 4 4 4 4 6 7 8 13 16 20 22 22 23 23 23 25 26 26 28 29 29 28 28 28 27 25 25 25 24 24 23 22 21 21 20 19 20 20 20 19 18 18 19 18 18 17 17 17 17 16 14 13 12 13 13 12 12 15 16 15
5 6 7 8 8 8 6 2 5 1 4 9 10 12 14 13 9 10 11 9 9 9 8 8 7 6 6 5 5 5 5 4 4 3 2 3 3 3 4 4 4 5 6 8 13 16 18 19 19 19 17 15 15 17 19 22 24 25 25 26 27 26 25 26 26 25 24 24 23 23 23 22 21 21 22 22 22 21 20 20 20 20 19 20 20 19 18 17 15 11 10 13 13 13 17 19 20
7 8 7 8 8 9 6 3 5 3 3 9 11 13 13 14 13 7 12 10 11 12 11 10 10 8 6 6 7 6 5 4 4 4 3 3 4 4 4 4 4 5 6 8 13 14 14 14 14 14 13 11 11 14 17 18 18 20 23 24 26 26 26 27 27 27 26 25 25 25 25 24 24 23 24 24 25 24 23 23 23 22 21 22 24 23 23 22 20 17 13 12 12 14 15 19 22
8 6 7 7 6 8 5 5 5 3 3 7 9 11 12 13 13 9 13 11 10 10 10 9 10 9 7 7 7 7 6 6 6 6 5 5 5 4 4 4 4 5 7 9 10 10 9 10 11 12 13 13 15 17 20 22 22 23 26 27 28 28 28 29 29 29 28 28 28 28 28 27 27 27 26 27 27 27 26 25 25 24 23 22 24 25 26 26 24 22 19 15 12 12 13 17 22
8 6 6 7 6 6 5 3 3 3 4 6 7 9 11 13 12 10 12 9 6 5 4 4 6 7 7 7 7 7 8 8 8 7 7 7 6 6 5 4 5 6 7 7 8 7 7 8 10 13 14 16 18 19 21 24 26 28 30 30 31 32 31 31 31 30 30 30 30 30 29 29 28 28 28 27 27 27 27 26 25 25 23 22 23 25 26 26 25 24 22 19 15 12 12 14 18
8 9 8 8 8 7 7 2 1 3 7 6 6 9 10 12 14 11 8 5 4 4 4 4 5 5 5 5 6 7 8 8 8 8 8 8 8 7 6 5 6 6 7 8 8 7 8 10 13 15 16 18 20 22 24 27 30 31 31 28 26 25 24 23 24 25 27 29 30 29 29 28 28 28 27 27 27 26 26 26 26 25 24 23 22 23 24 24 24 23 22 21 18 14 12 13 14
8 10 12 12 11 9 9 5 2 6 7 5 5 7 7 5 10 9 8 5 6 7 8 9 9 8 7 6 7 7 6 7 8 8 9 9 9 8 7 7 7 7 7 10 11 10 10 13 16 18 20 21 23 24 24 25 26 23 20 17 16 17 17 16 17 19 22 25 27 28 28 27 27 27 26 26 26 25 25 25 25 25 24 24 22 21 22 22 23 23 22 20 19 16 12 12 13
7 4 8 11 11 10 10 7 3 5 5 2 5 7 6 3 5 6 9 8 9 9 10 11 11 10 9 8 8 9 8 7 7 8 9 9 9 10 8 8 7 7 9 13 13 12 13 16 18 20 22 22 22 20 16 13 14 13 14 16 16 17 18 16 16 17 20 23 26 26 26 26 25 25 25 25 24 24 24 24 24 24 24 23 22 22 21 21 21 21 21 20 19 18 14 12 13
5 2 1 6 8 9 9 8 6 6 5 2 6 7 7 7 7 5 9 8 10 11 12 12 12 12 11 10 10 10 10 9 8 8 10 10 10 10 9 8 7 8 11 13 13 13 15 17 18 20 21 21 20 17 12 11 14 18 21 23 21 19 20 19 18 20 21 24 25 25 25 25 24 24 23 23 23 23 23 22 22 22 22 22 21 21 21 20 20 19 19 19 18 18 17 13 11
2 4 2 1 2 5 6 7 7 6 6 6 8 7 6 8 7 5 8 8 10 12 14 14 14 13 13 12 11 11 10 10 9 9 10 10 10 9 9 8 8 9 10 11 13 14 15 17 18 19 20 19 18 17 17 19 22 25 26 27 26 22 22 21 20 21 21 22 22 22 23 23 22 22 22 22 21 21 21 21 21 20 20 20 20 19 19 19 19 19 19 19 18 17 17 15 12
3 6 4 4 2 1 3 5 6 5 7 8 8 9 6 7 6 7 6 6 11 12 11 13 14 14 13 12 12 11 10 9 9 10 10 10 10 8 8 9 8 9 10 12 13 14 15 16 18 19 19 19 19 20 23 24 26 27 27 28 27 23 21 19 18 18 17 19 19 19 20 21 21 21 20 20 20 19 19 18 19 19 18 18 18 18 18 18 18 18 18 18 18 17 16 16 15
7 7 4 3 3 2 3 5 4 6 9 10 12 13 10 7 4 7 6 4 7 7 7 11 13 14 13 12 12 12 10 9 8 9 11 10 9 9 9 9 8 9 10 11 12 14 15 16 18 19 19 20 21 22 24 25 25 26 27 27 26 23 20 18 16 15 14 16 16 16 17 18 19 19 18 18 18 17 17 17 17 17 17 17 17 17 17 17 17 17 17 16 17 17 15 14 14
6 5 4 3 3 3 4 5 4 7 9 6 8 12 13 10 4 6 6 2 2 3 8 13 14 15 14 12 12 12 11 10 10 9 10 11 10 9 9 9 9 9 10 9 10 13 14 16 19 20 20 21 22 23 24 25 25 26 26 26 26 23 20 17 17 16 14 14 14 13 14 15 16 17 17 16 16 15 15 15 15 15 15 15 16 16 15 16 15 16 16 16 16 16 15 13 12
5 5 6 5 4 4 5 5 6 8 6 1 2 5 10 11 8 10 8 3 5 2 4 11 16 15 14 14 13 12 11 11 11 9 9 10 10 11 10 10 10 10 10 10 10 12 13 15 19 21 22 22 23 24 24 25 26 26 26 25 25 23 21 20 18 16 14 13 13 13 13 13 15 16 15 15 14 14 14 14 14 14 14 14 14 14 15 15 14 15 15 15 15 14 13 13 12
9 8 8 7 6 6 8 7 7 7 3 2 2 2 5 7 7 12 9 3 6 4 4 6 14 15 15 15 14 12 12 11 10 9 9 10 12 13 12 12 12 11 11 11 11 13 14 15 18 21 23 23 23 24 24 25 25 25 25 25 24 23 22 21 19 17 16 15 16 16 15 15 15 15 14 14 13 13 13 13 13 13 13 13 14 14 14 14 13 13 13 13 13 12 12 12 12
10 9 8 8 6 7 8 7 7 5 1 1 2 3 5 4 1 2 1 4 5 4 3 3 10 13 12 13 13 12 12 11 10 10 10 11 14 14 13 13 12 12 13 13 13 14 15 16 19 22 24 23 24 24 24 25 25 24 25 24 24 23 22 21 21 20 19 18 18 17 16 15 14 14 13 12 12 12 13 13 14 14 14 15 15 15 15 15 14 13 12 13 14 13 14 13 12
7 6 8 9 6 6 6 2 1 1 2 2 5 3 4 3 3 4 4 4 4 4 4 6 10 13 12 12 13 12 12 11 10 10 10 13 15 15 14 14 13 13 14 14 14 16 16 19 22 23 24 24 25 24 25 25 25 24 24 24 23 23 23 22 22 21 20 19 17 16 16 14 13 13 12 12 12 13 13 14 14 14 14 14 14 15 14 14 14 13 12 13 14 14 14 14 13
5 7 8 4 1 3 5 2 3 0 6 5 6 5 5 3 3 5 6 5 6 6 6 8 11 14 14 12 12 12 12 11 11 10 11 14 15 15 15 15 14 15 15 15 16 18 19 22 24 24 24 25 25 25 25 25 25 24 24 23 23 23 23 22 21 20 19 18 17 16 15 14 13 12 11 11 11 11 11 11 11 11 11 11 11 12 12 12 12 12 12 12 13 13 13 12 12
4 5 5 3 3 2 3 5 2 3 9 5 6 9 8 6 5 5 7 7 8 9 8 10 11 13 13 12 12 13 12 12 11 11 12 14 16 16 16 16 15 16 16 16 18 20 21 23 25 27 27 27 26 25 25 25 25 25 24 24 23 23 22 21 21 19 18 17 16 15 14 13 12 10 9 9 8 8 8 8 9 9 9 10 10 10 11 11 11 11 10 11 11 11 11 10 10
0 2 2 3 3 5 5 5 5 6 9 6 7 11 9 9 6 6 10 11 11 11 11 11 13 14 13 13 14 15 13 12 11 12 12 13 17 17 17 17 16 17 16 17 20 22 22 23 24 27 28 27 26 26 26 26 26 26 25 24 23 22 22 21 19 18 17 16 15 14 12 11 10 9 8 7 6 6 6 7 7 8 8 9 9 10 10 10 10 10 9 8 9 10 10 9 8
1 3 3 2 2 4 5 6 4 5 8 7 7 8 7 9 9 10 13 14 13 14 12 12 14 15 14 13 14 15 14 13 12 13 12 13 17 19 19 19 18 18 17 18 21 23 22 23 24 25 26 26 27 27 27 27 26 26 25 24 23 22 21 19 18 17 16 15 13 12 10 9 8 7 6 6 5 5 5 6 6 7 7 8 8 9 9 10 9 8 7 7 8 10 10 8 8
7 6 7 6 3 1 3 5 5 5 7 7 7 7 5 4 7 11 15 14 13 15 13 12 13 14 14 14 15 15 14 13 13 13 12 14 18 19 19 19 18 18 19 20 24 24 22 23 25 25 26 27 28 28 28 28 27 26 25 24 23 22 20 19 18 16 14 13 11 10 9 7 7 6 5 5 4 4 4 5 5 6 7 7 8 8 9 9 8 8 8 8 9 10 10 9 10
9 9 10 10 8 5 4 7 6 4 5 4 6 9 5 2 2 4 7 7 9 12 12 11 12 14 14 14 15 15 14 14 14 13 12 14 18 19 19 20 19 19 19 20 23 22 21 24 25 25 26 28 29 29 28 28 28 27 25 24 23 21 20 18 17 15 13 12 10 9 7 6 6 5 4 4 3 3 4 5 5 6 6 7 7 8 8 8 8 8 8 9 9 10 10 10 10
Wind_Direction
343 333 327 319 310 291 266 251 225 184 263 98 93 129 87 48 85 126 89 66 101 62 26 18 16 342 325 335 11 45 38 27 21 19 64 76 62 48 110 64 69 136 153 156 163 173 170 167 169 170 170 170 169 171 170 165 164 159 149 145 137 131 127 128 130 126 122 119 118 116 114 110 108 107 109 102 97 100 99 93 90 89 84 79 73 74 73 62 49 45 44 39 34 29 26 22 13
336 323 310 301 277 274 250 219 252 142 169 114 85 64 98 142 158 69 58 49 53 47 22 8 6 344 309 288 298 78 58 46 41 59 77 90 100 49 40 71 64 132 151 156 160 167 171 171 171 172 172 172 171 172 171 167 169 167 158 151 143 136 131 133 136 131 129 126 122 120 121 118 113 110 109 107 105 104 101 96 86 81 76 71 70 68 65 51 36 33 32 28 22 18 17 17 13
337 331 307 281 251 254 235 229 254 158 153 113 95 85 121 151 87 65 55 52 48 27 18 357 248 345 281 217 287 18 74 62 40 50 76 63 80 24 5 46 72 120 146 156 158 162 174 176 173 175 176 175 174 173 171 169 169 170 165 159 150 140 132 135 140 136 135 134 129 127 126 125 116 104 92 90 102 104 101 98 84 77 70 65 64 57 53 39 25 24 23 16 10 7 6 8 12
345 336 311 279 240 221 242 242 272 259 131 106 111 112 111 77 78 70 67 60 49 8 3 336 142 44 315 47 40 23 72 67 43 23 57 53 6 355 356 59 63 110 147 154 158 160 175 181 177 180 179 177 178 175 173 172 170 170 166 161 156 147 136 136 141 139 139 137 135 134 130 125 119 99 88 82 96 100 99 103 87 74 68 62 55 43 41 25 17 22 20 10 5 4 3 6 11
340 320 300 281 265 230 275 273 289 306 49 67 114 119 106 82 84 79 81 76 62 16 356 328 64 99 4 35 9 352 25 25 57 30 22 28 352 358 27 51 46 128 150 153 157 157 178 186 185 186 183 181 180 178 176 175 171 171 166 163 160 150 144 141 141 144 144 141 143 142 134 130 127 102 83 80 98 103 98 101 86 77 72 67 56 44 39 19 14 21 17 8 7 7 7 9 13
321 295 267 266 288 328 265 207 206 90 40 13 99 115 104 83 79 85 102 99 86 45 4 337 17 104 116 67 47 38 13 337 31 23 6 348 350 38 55 36 42 124 144 155 156 159 185 194 195 191 187 186 184 183 182 180 175 172 169 168 164 150 150 151 145 149 147 147 157 155 139 140 145 114 88 77 90 97 94 87 83 86 79 76 68 59 50 29 20 16 10 8 8 8 9 12 15
307 290 214 227 169 249 256 157 90 103 53 12 85 106 98 86 76 111 132 126 125 108 37 13 350 301 112 106 81 60 34 25 24 14 3 347 3 93 68 37 52 112 136 151 153 169 196 206 201 192 189 191 187 186 189 188 181 177 176 174 168 151 149 153 152 153 149 150 162 166 144 148 173 137 102 83 88 92 95 92 88 86 78 81 73 63 51 35 21 11 8 8 7 6 9 12 16
296 295 201 244 180 222 271 107 67 78 86 51 75 81 79 80 68 123 122 108 96 95 72 67 323 290 104 127 105 76 45 47 56 30 16 5 31 115 89 62 63 95 120 139 156 180 213 215 195 190 193 195 190 193 197 194 188 184 182 174 168 159 152 148 152 153 151 156 161 165 155 157 189 171 128 97 99 98 101 108 97 76 70 73 63 49 36 30 19 12 10 6 6 6 9 14 19
268 262 232 254 212 190 218 115 90 84 111 114 100 87 79 76 43 12 112 105 88 76 59 39 327 324 120 124 103 92 49 43 52 36 26 21 40 99 96 82 76 78 94 122 152 178 226 217 190 189 197 199 199 200 202 199 196 191 184 178 173 166 156 149 153 163 164 163 164 166 163 168 185 210 162 121 117 110 114 123 104 78 70 68 50 34 32 33 21 13 10 7 8 8 10 17 22
242 236 270 257 228 177 176 144 119 115 120 125 120 105 101 91 60 336 84 106 101 77 69 8 320 28 139 126 97 96 54 41 41 32 27 24 35 62 63 74 88 80 79 108 133 159 225 218 192 191 197 202 207 206 204 204 205 200 190 184 181 173 161 155 163 180 186 173 172 176 172 175 185 241 219 172 157 130 129 133 114 84 73 62 39 35 39 36 23 16 14 13 12 11 12 18 24
230 180 286 256 221 194 186 163 136 131 133 141 133 110 108 100 175 176 64 104 112 107 84 310 307 53 206 121 92 109 63 40 36 24 20 24 30 47 42 34 75 78 86 117 117 140 204 225 201 198 200 205 211 210 208 208 209 206 199 194 189 182 172 168 176 181 205 198 185 180 179 188 197 235 283 266 193 150 145 144 128 101 82 60 44 48 46 34 27 25 24 20 18 16 14 16 22
250 171 223 246 229 204 152 152 146 141 146 168 152 120 102 150 224 185 107 109 118 156 85 8 11 10 250 140 122 118 58 30 27 18 16 28 31 45 47 35 51 64 69 115 105 131 160 192 213 210 209 211 213 214 213 213 212 211 210 205 199 191 182 178 184 187 205 215 212 200 186 192 209 238 290 315 217 171 155 149 134 115 95 63 54 56 46 34 30 29 28 26 22 19 17 15 17
296 224 235 249 307 306 114 140 144 151 168 178 141 115 135 203 233 20 19 137 143 177 66 24 0 322 274 129 139 124 51 20 12 10 17 31 40 46 53 51 56 65 60 89 100 131 163 164 198 216 223 225 221 220 221 219 214 215 220 212 205 200 195 191 186 191 201 208 215 222 214 209 222 243 270 304 237 183 166 156 141 123 101 70 56 49 35 26 24 25 28 28 25 22 19 16 14
319 356 273 257 61 250 146 151 152 178 179 140 112 116 176 238 19 12 329 285 90 46 45 23 334 316 279 157 147 120 27 5 358 2 13 31 55 55 56 52 51 70 67 80 118 140 154 173 185 204 228 235 228 228 231 232 225 217 222 214 209 208 206 205 197 195 205 209 214 224 227 225 230 243 262 287 296 207 180 167 154 136 111 82 52 32 20 14 14 16 19 27 28 26 22 19 15
330 349 279 232 174 200 175 197 170 208 175 126 110 124 161 90 19 352 357 347 64 56 41 83 345 320 327 339 80 29 351 349 348 349 358 29 70 64 63 59 56 61 65 66 81 162 167 162 173 196 213 225 224 227 231 240 239 228 225 218 215 216 215 214 211 209 212 230 226 225 227 229 233 242 254 269 293 245 172 165 173 169 134 98 51 23 7 6 8 10 15 25 29 28 25 23 20
334 302 252 205 193 200 184 196 188 215 154 122 115 133 169 131 53 328 41 346 39 96 328 62 38 348 12 17 18 354 339 345 346 345 354 55 108 88 77 69 66 52 43 49 30 353 207 180 170 178 194 218 220 224 226 238 246 241 234 228 222 219 220 215 211 218 226 249 248 229 227 231 238 246 256 260 263 239 189 182 189 185 162 145 39 10 358 357 360 9 19 26 28 28 27 27 25
304 256 240 214 195 197 176 179 192 176 125 124 127 152 207 148 139 334 55 285 265 127 87 60 59 43 41 46 17 355 349 356 359 8 32 39 85 124 77 55 62 49 34 28 8 357 307 253 209 181 174 207 217 225 228 234 246 248 241 236 234 230 229 218 212 226 234 245 250 234 224 228 239 244 250 247 245 239 212 196 192 197 200 218 253 330 344 348 351 3 15 24 30 26 25 27 25
269 243 238 230 179 161 160 170 151 104 129 133 126 122 270 166 143 148 217 218 239 186 114 94 79 76 74 67 32 15 12 14 20 33 47 41 38 49 49 40 38 36 32 24 359 341 303 276 248 211 187 187 201 220 232 233 244 251 238 232 236 234 233 225 223 235 233 235 243 235 218 219 227 228 232 226 227 228 213 206 209 219 224 234 257 301 321 334 346 360 10 22 31 27 26 26 21
276 281 245 230 82 80 64 101 83 75 130 125 114 70 312 321 85 128 243 198 221 221 143 137 112 98 85 63 38 28 26 29 34 36 46 42 36 35 35 33 28 25 18 15 5 346 311 269 262 237 214 191 180 195 228 235 239 247 235 226 229 226 229 228 231 234 227 225 229 227 216 218 219 221 227 216 207 217 222 220 223 239 242 241 255 279 293 321 344 358 12 23 30 32 37 32 21
283 289 257 85 80 92 76 76 76 65 82 125 130 76 282 299 50 245 272 266 245 216 125 155 130 94 70 52 31 26 28 35 36 36 43 38 36 34 29 25 17 17 8 2 1 352 337 287 248 246 231 205 180 178 204 222 227 235 232 226 224 222 226 227 228 233 232 228 227 226 222 225 223 222 234 234 225 227 242 234 228 247 254 248 257 265 274 322 347 355 22 31 31 35 45 40 34
306 313 334 84 105 124 103 83 81 77 47 315 118 132 267 222 316 269 282 280 240 118 56 45 70 61 53 46 28 23 26 34 36 35 38 34 32 30 25 22 14 9 4 4 2 355 350 331 269 241 229 212 196 183 186 191 204 214 219 226 227 228 235 232 229 239 238 235 239 236 231 234 234 231 238 242 230 217 224 229 229 235 235 238 242 239 249 317 352 355 26 35 31 30 38 39 44
276 30 39 82 102 110 114 96 79 82 33 289 220 247 278 120 254 258 261 280 267 83 45 41 52 52 47 36 27 27 30 33 34 30 30 30 27 23 18 14 13 9 6 7 1 357 355 350 337 281 223 205 205 191 187 192 195 190 195 211 210 223 249 250 245 255 252 245 252 247 239 241 245 248 244 238 230 220 218 218 224 225 225 229 231 234 234 241 323 321 9 27 23 19 28 35 40
284 116 89 85 353 32 117 119 99 82 255 236 242 270 327 260 258 250 252 299 68 72 56 68 64 63 57 46 42 37 36 32 30 26 23 25 22 18 15 12 11 8 8 7 3 0 355 357 351 324 213 179 197 195 192 196 188 177 189 190 183 206 236 247 254 265 257 239 250 258 247 248 257 261 258 251 240 236 230 222 223 228 239 241 239 247 239 223 257 311 330 347 0 12 19 28 35
283 163 128 102 358 318 118 131 152 220 251 253 292 308 258 250 254 227 200 94 91 91 81 85 81 82 81 69 61 51 48 38 31 26 22 24 21 18 16 15 14 11 11 9 6 6 7 15 3 345 144 152 173 184 181 178 176 166 163 158 156 189 181 139 101 146 144 159 182 244 241 241 252 260 271 274 255 241 228 204 178 254 276 264 254 254 253 249 264 297 336 4 359 6 15 25 30
267 318 125 133 242 239 214 190 210 225 244 251 248 256 250 245 263 232 171 111 108 112 100 104 107 103 91 68 60 57 56 49 39 32 29 26 19 23 24 18 17 16 14 12 12 21 26 23 18 27 87 138 162 164 162 155 148 152 153 140 131 135 136 118 107 133 127 124 141 223 252 252 250 250 257 278 270 236 199 167 143 130 258 219 172 218 239 254 251 254 268 0 0 10 21 29 26
19 14 133 233 238 236 231 233 234 223 231 218 225 250 244 205 231 230 152 121 122 123 119 123 130 112 87 69 57 47 45 41 32 30 31 34 27 26 26 19 19 18 15 21 27 35 29 21 37 64 80 125 148 147 143 137 125 125 134 134 126 116 108 97 89 94 86 78 75 63 28 336 264 234 231 258 274 172 148 143 146 164 192 180 197 228 234 243 239 247 266 288 28 36 30 22 23
30 323 274 259 253 243 228 243 243 220 227 209 226 257 221 137 214 226 134 134 140 135 135 133 139 108 82 69 60 44 38 33 21 23 23 31 33 25 24 19 19 22 28 37 39 40 27 25 57 87 109 124 137 143 139 133 119 108 102 106 110 103 96 88 77 72 67 63 61 65 66 71 78 99 170 163 105 124 118 125 139 161 194 202 229 250 250 241 234 248 271 261 232 247 12 359 6
330 311 285 254 240 234 219 232 237 216 225 204 226 259 169 148 217 190 129 145 155 149 143 137 140 103 82 63 60 46 41 37 23 25 25 27 28 24 24 20 17 23 38 42 42 45 34 47 81 98 118 128 123 127 132 126 116 110 101 98 101 98 96 92 82 74 68 62 62 66 73 82 83 78 78 70 82 98 92 95 98 104 113 37 263 252 266 250 242 260 280 279 265 252 90 17 5
303 296 288 272 249 237 210 201 206 213 208 173 212 251 219 200 190 130 132 151 158 163 160 150 148 118 107 87 88 77 56 49 47 40 31 32 31 32 26 22 25 34 46 46 51 59 57 74 94 100 115 131 117 110 116 117 112 110 103 97 96 93 96 96 88 87 86 81 72 67 67 73 76 69 62 57 61 73 77 77 71 66 59 36 28 20 289 263 265 275 280 273 260 244 185 193 306
284 255 271 292 271 231 175 152 167 196 169 157 208 262 233 189 155 127 142 159 166 176 177 172 167 152 155 145 149 121 89 67 64 54 40 42 39 39 29 29 50 61 59 59 67 74 79 91 100 99 104 118 115 107 108 112 114 111 106 101 98 96 99 96 91 94 96 94 89 86 76 70 75 73 68 64 61 68 74 72 67 58 52 45 39 43 52 59 62 56 29 23 23 343 307 287 288
262 257 240 256 273 193 143 151 177 185 157 178 213 268 245 149 136 140 152 167 176 188 181 178 179 164 170 164 163 145 115 93 72 62 49 49 44 40 32 44 79 82 72 76 81 80 88 101 107 106 108 115 116 113 109 110 113 112 108 107 105 104 104 100 97 97 96 94 92 94 93 85 85 88 87 81 78 81 83 83 78 68 70 78 74 71 64 55 59 68 71 51 27 22 6 339 330
231 259 250 224 243 176 145 154 192 193 149 188 211 263 241 145 148 149 152 177 186 200 187 176 184 170 172 171 163 152 128 114 88 66 50 48 44 38 36 67 94 89 83 88 90 87 92 102 110 114 116 118 117 117 115 113 113 112 111 111 110 109 106 104 104 102 99 98 96 95 94 93 90 93 96 92 90 89 87 87 84 84 87 86 85 88 85 67 59 66 76 73 57 42 31 16 1
216 232 262 245 238 236 168 146 183 185 150 190 211 259 287 140 148 150 156 184 193 207 201 182 185 175 175 176 166 163 144 134 106 67 48 46 43 36 43 87 98 93 92 93 95 98 101 104 111 114 115 117 117 117 117 116 114 113 113 113 111 108 105 103 102 101 100 98 96 94 92 93 90 89 90 88 86 83 82 80 77 79 79 78 76 76 80 75 64 62 63 64 60 46 34 25 11
224 209 249 260 249 253 242 151 143 169 190 215 216 242 273 164 146 158 165 181 197 209 209 192 184 180 177 174 172 178 164 146 114 71 48 42 41 40 57 92 101 99 94 94 102 107 107 108 111 113 114 115 115 115 115 114 113 112 111 110 108 105 102 100 99 98 96 94 93 92 91 92 91 89 87 86 84 81 81 79 75 74 71 71 70 66 68 67 63 60 55 50 45 39 31 18 6
277 243 254 267 245 239 252 227 144 176 206 238 232 235 257 213 156 164 172 179 200 208 205 196 189 184 178 179 181 173 168 151 109 72 51 47 44 46 61 77 93 99 89 94 109 111 111 112 112 111 111 112 113 113 114 113 112 110 107 105 103 102 100 98 96 94 92 91 90 89 91 91 90 89 86 85 84 79 78 76 72 68 64 64 64 59 54 50 48 46 46 41 34 33 27 11 356
304 290 284 283 266 253 259 195 113 175 233 249 251 250 259 244 182 169 171 180 200 206 198 193 194 190 183 185 182 172 175 152 106 80 57 58 56 54 66 66 82 96 88 100 113 113 114 116 114 112 110 110 111 111 112 112 111 107 103 101 99 97 97 95 93 92 92 90 90 89 89 89 89 90 87 85 82 79 79 77 72 68 66 66 63 59 51 46 43 37 40 39 35 32 24 14 4
294 285 277 271 268 270 266 140 112 103 259 259 260 260 263 262 237 182 166 180 197 202 200 198 197 192 191 189 179 178 173 137 112 110 88 81 76 70 79 78 91 100 90 107 119 118 118 120 119 117 114 111 110 110 111 111 109 107 103 99 98 96 96 96 94 94 94 93 92 91 89 88 89 89 89 87 82 80 80 80 76 69 67 67 66 64 60 57 54 50 48 41 41 36 24 18 14
263 267 266 262 257 266 267 136 126 131 245 267 269 267 261 263 262 193 159 183 200 202 203 202 197 188 188 187 181 179 160 137 141 146 133 119 102 93 100 98 104 104 95 111 125 123 121 123 124 123 123 119 120 124 122 118 115 113 111 107 105 102 99 98 96 96 96 96 94 92 91 90 89 88 89 89 86 83 81 79 76 70 66 65 66 67 64 63 61 60 57 43 42 41 33 23 20
254 252 253 260 257 267 259 139 138 163 237 274 275 274 267 265 261 194 172 198 204 201 204 198 192 186 187 187 181 178 167 160 163 159 150 140 126 118 121 114 113 109 103 114 123 119 115 123 129 130 130 127 127 128 126 123 119 117 116 114 111 107 102 101 100 99 98 97 95 94 92 91 89 89 88 88 87 85 82 79 77 73 68 63 63 64 63 62 59 59 56 47 41 40 41 31 27
240 237 242 252 248 261 254 156 134 189 234 284 297 286 272 269 256 201 186 201 184 169 182 181 187 189 188 186 181 180 176 172 166 162 156 147 140 138 136 130 124 118 110 115 119 112 108 117 128 132 132 131 131 130 128 125 121 117 114 110 108 105 101 100 98 97 97 96 94 93 92 90 89 88 86 86 85 84 83 80 78 75 70 65 62 60 60 60 58 57 55 50 44 35 36 33 32
229 228 233 249 249 247 254 249 87 237 237 245 272 284 272 258 243 212 176 174 173 163 177 191 200 196 183 172 176 184 179 173 167 160 156 152 149 146 144 140 131 124 121 126 124 115 113 121 129 130 128 128 129 127 125 124 120 116 112 107 104 100 97 94 91 90 91 92 92 92 91 90 89 87 86 84 82 82 81 79 78 75 73 69 65 61 59 59 59 58 55 51 47 38 32 32 33
240 223 221 241 258 259 265 279 324 283 262 202 213 270 277 246 231 205 158 176 203 187 195 205 200 193 188 183 183 182 173 167 163 157 154 153 152 149 145 143 134 126 133 137 133 127 126 131 133 130 126 124 123 123 122 120 118 115 113 111 109 104 97 88 87 88 88 90 91 92 92 90 88 87 85 83 81 80 78 77 76 75 73 71 68 66 62 60 58 58 57 53 50 46 38 33 31
259 232 210 230 255 263 264 266 248 270 285 161 188 258 278 264 240 188 154 189 201 187 203 207 197 191 190 191 186 178 172 164 157 153 153 154 156 154 148 143 136 134 143 143 137 136 137 137 136 134 132 130 128 127 125 123 123 122 121 117 111 108 103 97 96 96 95 95 94 94 93 90 88 86 84 81 79 78 76 75 73 72 72 70 67 65 63 60 57 55 56 54 51 50 46 38 28
257 27 175 216 242 254 251 249 238 256 290 212 194 240 273 270 258 186 157 189 199 195 209 206 196 192 185 185 181 174 173 166 159 156 158 159 159 157 149 139 135 141 146 142 138 138 140 140 140 140 139 138 137 137 136 137 136 129 123 117 110 107 108 108 106 103 102 100 97 93 91 89 87 85 83 80 78 76 74 72 71 69 69 67 65 63 61 59 56 54 53 52 51 50 48 44 30
242 74 65 147 237 258 247 242 243 255 274 250 208 207 250 264 247 188 179 213 224 211 204 199 195 189 181 180 176 169 165 160 159 159 158 158 156 150 144 136 133 141 144 142 143 144 144 144 144 144 143 142 142 142 139 136 133 128 123 118 114 111 111 110 109 107 105 102 97 93 90 87 85 83 82 79 77 75 73 71 70 68 67 65 63 61 58 56 53 51 50 48 49 49 47 47 38
144 115 96 87 94 250 228 239 250 248 251 251 222 194 225 270 241 197 195 226 241 229 198 188 187 180 176 174 169 163 158 154 155 156 154 155 149 140 136 133 132 142 148 150 150 149 147 146 146 145 144 143 142 141 137 133 130 127 123 120 118 115 114 113 110 107 104 101 97 93 91 89 86 83 80 79 76 73 72 69 67 65 63 62 59 57 55 52 50 48 47 45 45 46 45 43 39
139 142 121 121 167 178 208 234 242 254 252 241 223 206 216 268 243 203 213 218 238 230 175 167 174 173 172 169 165 161 156 154 152 153 151 147 140 134 135 134 135 145 150 151 151 152 150 149 150 147 144 143 140 138 136 133 130 128 125 123 121 120 119 116 113 110 106 103 98 94 92 89 86 83 79 77 75 72 70 67 65 63 60 59 57 54 52 51 50 47 46 43 41 42 43 41 36
159 170 169 180 198 180 214 223 202 247 257 232 215 210 213 236 231 207 223 164 168 204 160 163 171 172 170 166 164 160 157 156 155 155 153 148 143 142 145 143 141 147 151 151 152 152 151 151 152 149 144 143 141 140 138 134 131 129 127 125 124 122 122 120 117 115 110 105 101 97 93 87 86 85 82 79 76 74 72 68 66 63 59 56 54 52 49 49 49 45 42 41 39 38 39 40 34
195 189 186 200 216 206 226 221 203 236 251 112 138 201 218 236 243 241 242 129 108 107 143 167 172 171 168 164 162 159 157 159 159 160 157 156 155 155 157 154 151 155 157 155 153 150 150 151 151 148 145 144 143 141 138 135 133 132 131 129 128 127 126 123 119 114 109 106 105 102 99 94 91 89 84 80 76 72 69 66 63 60 56 53 51 49 46 44 46 44 40 38 38 34 34 38 33
195 191 186 198 214 233 243 236 233 237 224 83 108 171 235 253 247 243 242 109 93 74 68 163 168 165 164 160 158 156 156 160 162 162 162 162 163 163 162 160 160 162 162 159 157 154 150 148 149 148 146 145 144 142 139 137 136 136 136 134 132 132 129 126 123 119 115 114 113 109 104 99 94 89 84 79 75 71 68 64 61 58 54 51 47 44 44 41 42 44 37 35 37 32 31 35 29
196 197 198 211 215 238 250 242 247 250 142 126 165 167 218 221 150 207 166 86 91 86 68 134 155 156 154 152 155 156 158 161 162 164 166 166 166 165 164 163 164 166 165 164 161 157 151 149 152 150 147 147 146 144 143 141 139 139 138 136 135 135 132 130 127 124 121 117 114 110 106 102 97 92 85 78 71 65 60 54 49 45 40 38 35 33 34 32 33 36 29 25 28 23 23 28 24
194 197 212 226 228 244 261 262 246 310 346 212 190 216 244 204 119 108 112 121 132 121 122 148 152 151 150 154 160 161 162 164 166 167 169 168 168 167 165 165 166 166 167 168 165 161 157 154 155 152 150 150 150 148 146 144 143 143 142 142 141 139 135 132 128 124 121 117 112 108 105 101 94 86 77 67 59 52 47 42 38 35 31 29 27 25 26 23 25 27 21 19 21 15 15 18 15
172 192 209 212 6 278 260 240 112 90 278 246 178 221 261 239 201 147 141 165 161 152 157 161 161 157 157 165 167 166 168 168 170 171 169 170 169 167 167 168 169 170 171 172 169 165 162 159 157 155 154 153 153 152 150 148 148 148 147 146 144 140 135 131 127 123 119 114 108 103 99 93 87 80 69 61 54 47 43 39 35 31 27 26 23 21 21 19 20 22 15 13 16 12 12 12 6
153 195 195 115 42 328 270 257 238 229 258 252 182 215 228 215 219 148 153 185 181 177 171 163 170 169 167 173 172 171 171 168 169 170 170 172 170 169 170 170 171 173 174 173 171 168 165 163 161 160 158 157 157 156 154 152 152 150 149 147 143 139 134 129 125 121 115 111 106 101 97 92 86 78 68 60 54 46 39 35 31 27 23 21 19 18 17 16 19 19 14 9 6 6 12 13 0
134 266 190 136 221 226 203 229 254 240 248 259 221 221 222 214 211 160 176 196 188 180 175 173 180 180 176 175 173 172 169 167 170 173 174 175 173 173 171 171 173 174 174 173 173 171 168 166 165 163 162 161 160 159 156 155 155 153 151 149 144 138 133 129 124 120 116 112 109 105 100 94 85 76 69 62 54 46 38 32 27 23 19 16 16 15 14 15 17 16 13 2 353 360 11 11 354
337 293 224 196 252 234 208 215 242 243 247 265 244 221 220 218 207 185 189 195 183 174 178 186 186 183 181 175 173 174 173 173 175 177 179 176 174 174 172 172 171 171 173 174 175 174 170 168 167 165 165 165 163 162 160 159 159 157 154 150 145 140 136 132 127 124 121 117 114 110 104 96 88 80 74 66 58 50 40 33 26 21 17 15 14 13 12 14 13 8 4 355 348 357 7 2 351
185 208 206 197 192 241 280 242 231 238 246 257 257 252 241 204 196 197 195 191 180 174 179 188 185 183 181 176 176 178 175 176 176 178 179 173 171 170 169 170 169 169 174 178 179 177 172 171 169 169 169 168 166 165 165 165 163 161 157 153 148 144 140 136 131 129 128 124 120 115 107 101 95 86 79 73 66 55 41 34 26 20 16 14 12 10 8 9 6 357 350 348 349 353 358 353 348
192 199 199 199 193 183 232 234 213 218 248 252 265 272 264 132 134 201 188 179 173 172 175 176 176 179 179 179 182 180 176 178 179 178 174 168 166 165 166 168 168 170 174 178 180 178 175 175 173 173 174 172 171 170 169 169 167 163 160 156 152 148 145 141 138 136 134 130 126 121 116 111 104 99 92 80 67 52 38 29 22 17 13 8 6 4 2 359 354 349 344 344 345 348 349 347 344